EIN239H EGKK-EIDW

Flight info

Callsign EIN239H
Flight time 1h 1m
Altitude 34000
Route IMVUR N63 VOUGA N14 BIBPE DCT OKTAD DCT MEDOG DCT KRAGY DCT PEMOB M17 VATRY VATRY4L
Aircraft A320/M-SDE3FGHIRWY/LB1

Departure

Time 2026-05-06 20:14
Airport London Gatwick Airport (EGKK)

Arrival

Time 2026-05-06 21:16
Airport Dublin Airport (EIDW)
Time Latitude Longitude Altitude Speed Heading
2026-05-06 19:36 51.15442 -0.16425 210 ft 0 kts 76°
2026-05-06 20:01 51.15442 -0.16429 174 ft 1 kts 78°
2026-05-06 20:01 51.15441 -0.16444 213 ft 2 kts 87°
2026-05-06 20:01 51.15440 -0.16469 202 ft 3 kts 73°
2026-05-06 20:01 51.15432 -0.16494 208 ft 3 kts 31°
2026-05-06 20:02 51.15415 -0.16502 207 ft 3 kts 354°
2026-05-06 20:02 51.15398 -0.16498 205 ft 1 kts 348°
2026-05-06 20:02 51.15392 -0.16496 206 ft 0 kts 348°
2026-05-06 20:05 51.15397 -0.16500 204 ft 2 kts 335°
2026-05-06 20:06 51.15410 -0.16549 204 ft 5 kts 274°
2026-05-06 20:06 51.15402 -0.16600 211 ft 4 kts 244°
2026-05-06 20:06 51.15398 -0.16640 209 ft 3 kts 260°
2026-05-06 20:06 51.15394 -0.16672 206 ft 3 kts 259°
2026-05-06 20:07 51.15388 -0.16722 210 ft 6 kts 258°
2026-05-06 20:07 51.15377 -0.16798 207 ft 9 kts 257°
2026-05-06 20:07 51.15363 -0.16906 206 ft 11 kts 258°
2026-05-06 20:07 51.15344 -0.17051 213 ft 15 kts 256°
2026-05-06 20:08 51.15320 -0.17219 205 ft 16 kts 258°
2026-05-06 20:08 51.15304 -0.17391 209 ft 16 kts 263°
2026-05-06 20:08 51.15284 -0.17565 211 ft 16 kts 257°
2026-05-06 20:08 51.15257 -0.17765 210 ft 21 kts 258°
2026-05-06 20:09 51.15223 -0.18011 209 ft 25 kts 258°
2026-05-06 20:09 51.15188 -0.18269 206 ft 25 kts 257°
2026-05-06 20:09 51.15152 -0.18560 205 ft 28 kts 258°
2026-05-06 20:09 51.15110 -0.18870 210 ft 28 kts 257°
2026-05-06 20:10 51.15078 -0.19114 205 ft 18 kts 258°
2026-05-06 20:10 51.15050 -0.19244 208 ft 11 kts 230°
2026-05-06 20:10 51.14980 -0.19271 213 ft 10 kts 206°
2026-05-06 20:10 51.14946 -0.19381 210 ft 13 kts 256°
2026-05-06 20:11 51.14922 -0.19553 208 ft 18 kts 258°
2026-05-06 20:11 51.14892 -0.19764 210 ft 21 kts 258°
2026-05-06 20:11 51.14859 -0.20010 203 ft 24 kts 258°
2026-05-06 20:11 51.14823 -0.20267 206 ft 25 kts 257°
2026-05-06 20:12 51.14785 -0.20539 208 ft 25 kts 257°
2026-05-06 20:12 51.14750 -0.20812 208 ft 26 kts 259°
2026-05-06 20:12 51.14714 -0.21085 202 ft 23 kts 257°
2026-05-06 20:12 51.14662 -0.21305 205 ft 21 kts 217°
2026-05-06 20:13 51.14552 -0.21271 204 ft 16 kts 139°
2026-05-06 20:13 51.14523 -0.21118 207 ft 0 kts 78°
2026-05-06 20:13 51.14528 -0.21083 213 ft 20 kts 78°
2026-05-06 20:14 51.14619 -0.20420 207 ft 98 kts 78°
2026-05-06 20:14 51.14809 -0.19033 220 ft 154 kts 78°
2026-05-06 20:14 51.15015 -0.17319 812 ft 159 kts 77°
2026-05-06 20:14 51.15266 -0.15610 1604 ft 159 kts 72°
2026-05-06 20:15 51.15561 -0.13842 2123 ft 176 kts 74°
2026-05-06 20:15 51.15849 -0.11820 2500 ft 199 kts 75°
2026-05-06 20:15 51.16155 -0.09551 2918 ft 219 kts 76°
2026-05-06 20:15 51.16502 -0.07133 3011 ft 225 kts 69°
2026-05-06 20:16 51.17418 -0.05216 3013 ft 220 kts 28°
2026-05-06 20:16 51.18886 -0.04736 3013 ft 219 kts 356°
2026-05-06 20:16 51.20394 -0.05119 3010 ft 220 kts 347°
2026-05-06 20:16 51.21811 -0.05996 3004 ft 221 kts 321°
2026-05-06 20:17 51.22683 -0.08002 3011 ft 232 kts 288°
2026-05-06 20:17 51.22726 -0.10716 3016 ft 256 kts 263°
2026-05-06 20:17 51.22425 -0.13557 3236 ft 264 kts 261°
2026-05-06 20:17 51.22074 -0.16423 4370 ft 263 kts 260°
2026-05-06 20:18 51.21718 -0.19292 5441 ft 265 kts 260°
2026-05-06 20:18 51.21363 -0.22187 6447 ft 268 kts 260°
2026-05-06 20:18 51.21011 -0.25127 7370 ft 271 kts 260°
2026-05-06 20:18 51.20659 -0.28102 8290 ft 275 kts 261°
2026-05-06 20:19 51.20307 -0.31128 9220 ft 279 kts 261°
2026-05-06 20:19 51.19953 -0.34196 10118 ft 283 kts 261°
2026-05-06 20:19 51.19600 -0.37318 10839 ft 293 kts 264°
2026-05-06 20:19 51.19792 -0.40633 11127 ft 314 kts 290°
2026-05-06 20:20 51.20858 -0.43746 11686 ft 325 kts 303°
2026-05-06 20:20 51.22099 -0.46780 12464 ft 330 kts 303°
2026-05-06 20:20 51.23361 -0.49863 13276 ft 333 kts 303°
2026-05-06 20:20 51.24635 -0.52987 14044 ft 338 kts 303°
2026-05-06 20:21 51.25919 -0.56145 14705 ft 342 kts 303°
2026-05-06 20:21 51.27212 -0.59340 15295 ft 344 kts 303°
2026-05-06 20:21 51.28516 -0.62573 16004 ft 348 kts 302°
2026-05-06 20:21 51.29834 -0.65843 16699 ft 351 kts 302°
2026-05-06 20:22 51.31160 -0.69139 17385 ft 355 kts 302°
2026-05-06 20:22 51.32501 -0.72478 18072 ft 359 kts 302°
2026-05-06 20:22 51.33854 -0.75854 18691 ft 362 kts 302°
2026-05-06 20:22 51.35219 -0.79257 19305 ft 365 kts 302°
2026-05-06 20:23 51.36597 -0.82688 19914 ft 368 kts 302°
2026-05-06 20:23 51.37984 -0.86144 20519 ft 371 kts 302°
2026-05-06 20:23 51.39410 -0.89700 20712 ft 386 kts 302°
2026-05-06 20:23 51.40873 -0.93362 21116 ft 394 kts 302°
2026-05-06 20:24 51.42356 -0.97081 21642 ft 398 kts 302°
2026-05-06 20:24 51.43847 -1.00832 22186 ft 401 kts 302°
2026-05-06 20:24 51.45349 -1.04619 22705 ft 404 kts 302°
2026-05-06 20:24 51.46862 -1.08435 23226 ft 407 kts 302°
2026-05-06 20:25 51.48385 -1.12280 23698 ft 410 kts 302°
2026-05-06 20:25 51.49917 -1.16147 24118 ft 412 kts 302°
2026-05-06 20:25 51.51463 -1.20048 24518 ft 414 kts 301°
2026-05-06 20:25 51.53009 -1.23959 24922 ft 417 kts 301°
2026-05-06 20:26 51.54561 -1.27905 25319 ft 419 kts 301°
2026-05-06 20:26 51.56118 -1.31876 25702 ft 421 kts 301°
2026-05-06 20:26 51.57680 -1.35864 25997 ft 423 kts 301°
2026-05-06 20:26 51.59250 -1.39875 26377 ft 425 kts 301°
2026-05-06 20:27 51.60826 -1.43901 26753 ft 426 kts 301°
2026-05-06 20:27 51.62411 -1.47951 27112 ft 428 kts 301°
2026-05-06 20:27 51.63998 -1.52014 27463 ft 430 kts 301°
2026-05-06 20:27 51.65593 -1.56107 27796 ft 432 kts 301°
2026-05-06 20:28 51.67191 -1.60221 28144 ft 434 kts 301°
2026-05-06 20:28 51.68758 -1.64389 28458 ft 435 kts 297°
2026-05-06 20:28 51.69976 -1.68859 28764 ft 436 kts 288°
2026-05-06 20:28 51.70759 -1.73575 29055 ft 437 kts 282°
2026-05-06 20:29 51.71421 -1.78378 29335 ft 439 kts 282°
2026-05-06 20:29 51.72108 -1.83183 29603 ft 441 kts 283°
2026-05-06 20:29 51.72811 -1.88001 29860 ft 442 kts 283°
2026-05-06 20:29 51.73516 -1.92822 30192 ft 441 kts 283°
2026-05-06 20:30 51.74205 -1.97589 30785 ft 433 kts 282°
2026-05-06 20:30 51.75537 -2.07008 31537 ft 431 kts 282°
2026-05-06 20:30 51.76193 -2.11730 31839 ft 431 kts 282°
2026-05-06 20:31 51.76846 -2.16448 32200 ft 430 kts 282°
2026-05-06 20:31 51.77499 -2.21154 32576 ft 429 kts 282°
2026-05-06 20:31 51.78150 -2.25855 32940 ft 428 kts 282°
2026-05-06 20:31 51.78797 -2.30545 33316 ft 428 kts 282°
2026-05-06 20:32 51.79443 -2.35244 33617 ft 429 kts 282°
2026-05-06 20:32 51.80087 -2.39939 33934 ft 429 kts 282°
2026-05-06 20:32 51.80728 -2.44634 34015 ft 424 kts 283°
2026-05-06 20:33 51.81978 -2.53847 34019 ft 417 kts 283°
2026-05-06 20:33 51.83215 -2.63001 34017 ft 416 kts 283°
2026-05-06 20:34 51.84446 -2.72150 34014 ft 416 kts 283°
2026-05-06 20:34 51.85659 -2.81242 34013 ft 416 kts 283°
2026-05-06 20:35 51.86876 -2.90396 34070 ft 416 kts 283°
2026-05-06 20:35 51.88083 -2.99564 34053 ft 417 kts 283°
2026-05-06 20:36 51.89292 -3.08804 34044 ft 417 kts 283°
2026-05-06 20:36 51.90491 -3.18008 34031 ft 418 kts 283°
2026-05-06 20:37 51.91678 -3.27220 34021 ft 418 kts 282°
2026-05-06 20:37 51.92860 -3.36449 34007 ft 418 kts 282°
2026-05-06 20:38 51.94039 -3.45677 33993 ft 419 kts 283°
2026-05-06 20:38 51.95210 -3.54949 33994 ft 420 kts 283°
2026-05-06 20:39 51.96383 -3.64237 33996 ft 421 kts 283°
2026-05-06 20:39 51.97548 -3.73537 33999 ft 421 kts 282°
2026-05-06 20:40 51.98507 -3.81266 34006 ft 421 kts 283°
2026-05-06 20:40 51.99656 -3.90592 33997 ft 422 kts 283°
2026-05-06 20:41 52.00801 -3.99952 33982 ft 423 kts 283°
2026-05-06 20:41 52.01946 -4.09350 33984 ft 425 kts 283°
2026-05-06 20:42 52.03090 -4.18763 33991 ft 426 kts 283°
2026-05-06 20:42 52.04232 -4.28210 33994 ft 426 kts 283°
2026-05-06 20:43 52.05360 -4.37666 33997 ft 427 kts 283°
2026-05-06 20:43 52.06469 -4.47143 33988 ft 427 kts 283°
2026-05-06 20:43 52.07023 -4.51896 33798 ft 429 kts 283°
2026-05-06 20:44 52.07581 -4.56664 33518 ft 429 kts 283°
2026-05-06 20:44 52.08138 -4.61400 33007 ft 425 kts 283°
2026-05-06 20:44 52.08690 -4.66102 32458 ft 421 kts 283°
2026-05-06 20:44 52.09232 -4.70756 31918 ft 418 kts 283°
2026-05-06 20:45 52.09768 -4.75389 31384 ft 415 kts 283°
2026-05-06 20:45 52.10295 -4.79980 30859 ft 412 kts 282°
2026-05-06 20:45 52.10814 -4.84545 30338 ft 409 kts 282°
2026-05-06 20:45 52.11328 -4.89081 29780 ft 406 kts 282°
2026-05-06 20:46 52.11838 -4.93570 29269 ft 402 kts 282°
2026-05-06 20:46 52.12341 -4.98017 28771 ft 397 kts 282°
2026-05-06 20:46 52.12838 -5.02408 28292 ft 393 kts 282°
2026-05-06 20:46 52.13352 -5.06749 27822 ft 388 kts 285°
2026-05-06 20:47 52.14236 -5.10850 27365 ft 382 kts 297°
2026-05-06 20:47 52.15589 -5.14518 26925 ft 376 kts 308°
2026-05-06 20:47 52.17335 -5.17643 26503 ft 370 kts 319°
2026-05-06 20:47 52.19381 -5.20133 26073 ft 366 kts 330°
2026-05-06 20:48 52.21622 -5.22046 25644 ft 362 kts 334°
2026-05-06 20:48 52.23848 -5.23865 25447 ft 352 kts 333°
2026-05-06 20:48 52.26019 -5.25645 25080 ft 347 kts 333°
2026-05-06 20:48 52.28168 -5.27412 24652 ft 345 kts 333°
2026-05-06 20:49 52.30305 -5.29171 24218 ft 343 kts 333°
2026-05-06 20:49 52.32430 -5.30924 23778 ft 342 kts 333°
2026-05-06 20:49 52.34550 -5.32680 23288 ft 341 kts 333°
2026-05-06 20:49 52.36659 -5.34428 22826 ft 338 kts 333°
2026-05-06 20:50 52.38750 -5.36153 22385 ft 336 kts 334°
2026-05-06 20:50 52.40933 -5.37495 21943 ft 335 kts 345°
2026-05-06 20:50 52.43220 -5.38161 21498 ft 334 kts 353°
2026-05-06 20:50 52.45523 -5.38565 21059 ft 332 kts 353°
2026-05-06 20:51 52.47821 -5.38984 20617 ft 331 kts 352°
2026-05-06 20:51 52.50107 -5.39411 20181 ft 331 kts 352°
2026-05-06 20:51 52.52390 -5.39842 19745 ft 330 kts 352°
2026-05-06 20:51 52.54671 -5.40273 19309 ft 330 kts 352°
2026-05-06 20:52 52.56950 -5.40699 18878 ft 330 kts 352°
2026-05-06 20:52 52.59232 -5.41122 18448 ft 330 kts 352°
2026-05-06 20:52 52.61509 -5.41547 17981 ft 330 kts 352°
2026-05-06 20:52 52.63783 -5.41974 17550 ft 328 kts 352°
2026-05-06 20:53 52.66045 -5.42396 17126 ft 326 kts 351°
2026-05-06 20:53 52.68295 -5.42810 16711 ft 325 kts 351°
2026-05-06 20:53 52.70538 -5.43223 16295 ft 324 kts 351°
2026-05-06 20:53 52.72775 -5.43640 15889 ft 323 kts 351°
2026-05-06 20:54 52.75000 -5.44060 15480 ft 322 kts 351°
2026-05-06 20:54 52.77223 -5.44479 15075 ft 321 kts 351°
2026-05-06 20:54 52.79444 -5.44900 14668 ft 321 kts 351°
2026-05-06 20:54 52.81627 -5.45312 14270 ft 320 kts 351°
2026-05-06 20:55 52.83843 -5.45731 13855 ft 320 kts 351°
2026-05-06 20:55 52.86053 -5.46146 13408 ft 319 kts 351°
2026-05-06 20:55 52.88256 -5.46563 13009 ft 318 kts 351°
2026-05-06 20:55 52.90444 -5.46982 12590 ft 316 kts 351°
2026-05-06 20:56 52.92651 -5.47403 12181 ft 314 kts 351°
2026-05-06 20:56 52.94786 -5.47805 11769 ft 313 kts 351°
2026-05-06 20:56 52.96945 -5.48211 11354 ft 311 kts 352°
2026-05-06 20:56 52.99092 -5.48617 10935 ft 310 kts 352°
2026-05-06 20:57 53.01230 -5.49022 10516 ft 309 kts 352°
2026-05-06 20:57 53.03350 -5.49526 10100 ft 306 kts 343°
2026-05-06 20:57 53.05255 -5.50894 9919 ft 293 kts 325°
2026-05-06 20:57 53.06760 -5.53073 9741 ft 285 kts 307°
2026-05-06 20:58 53.07790 -5.55843 9604 ft 281 kts 291°
2026-05-06 20:58 53.08515 -5.58861 9470 ft 281 kts 290°
2026-05-06 20:58 53.09234 -5.61874 9335 ft 280 kts 290°
2026-05-06 20:58 53.09954 -5.64887 9201 ft 280 kts 290°
2026-05-06 20:59 53.10672 -5.67895 9068 ft 279 kts 290°
2026-05-06 20:59 53.11386 -5.70897 8935 ft 279 kts 290°
2026-05-06 20:59 53.12096 -5.73886 8803 ft 277 kts 290°
2026-05-06 20:59 53.12804 -5.76861 8671 ft 276 kts 290°
2026-05-06 21:00 53.13511 -5.79831 8538 ft 276 kts 290°
2026-05-06 21:00 53.14238 -5.82780 8406 ft 275 kts 291°
2026-05-06 21:00 53.14995 -5.85699 8275 ft 274 kts 291°
2026-05-06 21:00 53.15757 -5.88589 8149 ft 273 kts 292°
2026-05-06 21:01 53.16523 -5.91489 8008 ft 273 kts 292°
2026-05-06 21:01 53.17284 -5.94379 7888 ft 272 kts 292°
2026-05-06 21:01 53.18042 -5.97273 7760 ft 272 kts 291°
2026-05-06 21:01 53.18796 -6.00158 7632 ft 271 kts 291°
2026-05-06 21:02 53.19546 -6.03038 7509 ft 271 kts 291°
2026-05-06 21:02 53.20297 -6.05919 7380 ft 270 kts 291°
2026-05-06 21:02 53.21042 -6.08788 7254 ft 269 kts 291°
2026-05-06 21:02 53.21817 -6.11789 7110 ft 269 kts 291°
2026-05-06 21:03 53.22520 -6.14517 6990 ft 268 kts 291°
2026-05-06 21:03 53.23254 -6.17354 6993 ft 264 kts 291°
2026-05-06 21:03 53.23982 -6.20180 6979 ft 265 kts 291°
2026-05-06 21:03 53.24706 -6.23000 6983 ft 265 kts 291°
2026-05-06 21:04 53.25430 -6.25822 6979 ft 264 kts 291°
2026-05-06 21:04 53.26154 -6.28650 6979 ft 264 kts 291°
2026-05-06 21:04 53.26876 -6.31468 6979 ft 264 kts 291°
2026-05-06 21:04 53.27596 -6.34282 6978 ft 259 kts 291°
2026-05-06 21:05 53.28279 -6.36948 6979 ft 241 kts 291°
2026-05-06 21:05 53.28924 -6.39467 6981 ft 233 kts 290°
2026-05-06 21:05 53.29559 -6.41955 6972 ft 233 kts 290°
2026-05-06 21:05 53.30195 -6.44448 6772 ft 232 kts 290°
2026-05-06 21:06 53.30823 -6.46915 6597 ft 230 kts 290°
2026-05-06 21:06 53.31450 -6.49377 6420 ft 229 kts 290°
2026-05-06 21:06 53.32073 -6.51826 6237 ft 229 kts 290°
2026-05-06 21:06 53.32692 -6.54271 6070 ft 228 kts 290°
2026-05-06 21:07 53.33310 -6.56720 5880 ft 228 kts 290°
2026-05-06 21:07 53.33927 -6.59167 5712 ft 228 kts 290°
2026-05-06 21:07 53.34545 -6.61615 5537 ft 228 kts 290°
2026-05-06 21:07 53.35162 -6.64061 5368 ft 228 kts 291°
2026-05-06 21:08 53.35839 -6.66460 5185 ft 229 kts 302°
2026-05-06 21:08 53.36989 -6.68304 5018 ft 233 kts 327°
2026-05-06 21:08 53.38516 -6.69162 4829 ft 232 kts 353°
2026-05-06 21:08 53.40110 -6.69029 4646 ft 226 kts
2026-05-06 21:09 53.41656 -6.68771 4458 ft 220 kts
2026-05-06 21:09 53.43092 -6.68005 4283 ft 216 kts 27°
2026-05-06 21:09 53.44267 -6.66515 4116 ft 209 kts 47°
2026-05-06 21:09 53.45049 -6.64565 4051 ft 196 kts 66°
2026-05-06 21:10 53.45421 -6.62461 3952 ft 180 kts 84°
2026-05-06 21:10 53.45435 -6.60493 3960 ft 157 kts 98°
2026-05-06 21:10 53.45343 -6.58732 3846 ft 149 kts 97°
2026-05-06 21:10 53.45255 -6.57017 3669 ft 146 kts 96°
2026-05-06 21:11 53.45168 -6.55324 3493 ft 146 kts 97°
2026-05-06 21:11 53.45080 -6.53634 3303 ft 145 kts 98°
2026-05-06 21:11 53.44991 -6.51946 3106 ft 145 kts 98°
2026-05-06 21:11 53.44903 -6.50264 2907 ft 144 kts 96°
2026-05-06 21:12 53.44814 -6.48592 2714 ft 144 kts 98°
2026-05-06 21:12 53.44715 -6.46937 2540 ft 142 kts 99°
2026-05-06 21:12 53.44623 -6.45285 2319 ft 142 kts 98°
2026-05-06 21:12 53.44535 -6.43650 2088 ft 140 kts 99°
2026-05-06 21:13 53.44430 -6.42036 1879 ft 139 kts 101°
2026-05-06 21:13 53.44329 -6.40428 1666 ft 138 kts 97°
2026-05-06 21:13 53.44285 -6.38824 1503 ft 138 kts 96°
2026-05-06 21:13 53.44194 -6.37232 1341 ft 136 kts 100°
2026-05-06 21:14 53.44096 -6.35651 1136 ft 136 kts 98°
2026-05-06 21:14 53.44026 -6.34081 1001 ft 135 kts 99°
2026-05-06 21:14 53.43954 -6.32525 809 ft 132 kts 100°
2026-05-06 21:14 53.43860 -6.30997 618 ft 132 kts 96°
2026-05-06 21:15 53.43781 -6.29466 429 ft 131 kts 99°
2026-05-06 21:15 53.43704 -6.27924 265 ft 133 kts 97°
2026-05-06 21:15 53.43620 -6.26462 215 ft 110 kts 81°
2026-05-06 21:15 53.43575 -6.25466 218 ft 55 kts 94°
2026-05-06 21:16 53.43529 -6.25218 215 ft 16 kts 127°
2026-05-06 21:16 53.43468 -6.25050 218 ft 18 kts 119°
2026-05-06 21:16 53.43387 -6.25008 216 ft 14 kts 229°
2026-05-06 21:16 53.43386 -6.25179 215 ft 16 kts 276°
2026-05-06 21:17 53.43397 -6.25380 211 ft 19 kts 275°
2026-05-06 21:17 53.43407 -6.25561 211 ft 13 kts 270°
2026-05-06 21:17 53.43348 -6.25644 211 ft 14 kts 167°
2026-05-06 21:17 53.43251 -6.25573 216 ft 17 kts 156°
2026-05-06 21:18 53.43137 -6.25490 211 ft 19 kts 156°
2026-05-06 21:18 53.43005 -6.25395 220 ft 22 kts 156°
2026-05-06 21:18 53.42883 -6.25306 217 ft 18 kts 156°
2026-05-06 21:18 53.42773 -6.25211 211 ft 19 kts 142°
2026-05-06 21:19 53.42662 -6.25076 215 ft 21 kts 155°
2026-05-06 21:19 53.42522 -6.24974 211 ft 22 kts 158°
2026-05-06 21:19 53.42416 -6.24899 217 ft 13 kts 157°
2026-05-06 21:19 53.42359 -6.24808 211 ft 12 kts 93°
2026-05-06 21:20 53.42401 -6.24692 211 ft 11 kts 54°
2026-05-06 21:20 53.42427 -6.24619 215 ft 10 kts 61°
2026-05-06 21:20 53.42472 -6.24486 215 ft 9 kts 56°
2026-05-06 21:20 53.42498 -6.24440 211 ft 5 kts 46°
2026-05-06 21:21 53.42497 -6.24398 211 ft 3 kts 112°
2026-05-06 21:21 53.42483 -6.24372 214 ft 3 kts 135°
2026-05-06 21:21 53.42472 -6.24353 211 ft 2 kts 135°
2026-05-06 21:21 53.42467 -6.24345 211 ft 0 kts 135°
2026-05-06 21:22 53.42467 -6.24344 211 ft 0 kts 135°